Terug naar catalogus

THOR ABLESTAR DEB

ActiefLEO
NORAD 15783·DEBRIS·🇺🇸 United States

Gelanceerd Jun 29, 1961 vanaf Cape Canaveral Space Force Station

Loading…

Volgende Passages (komende 24 uur)

TLE

VersSource: Space-Track

Epoch: Sep 14, 2026, 03:58 UTC

1 15783U 61015LG  26257.16566818  .00004333  00000-0  51974-3 0  9992
2 15783  67.0361 155.7689 0033335 158.3235 352.4448 14.84657593196024

Volg THOR ABLESTAR DEB in realtime met AllMySat

Download on the App Store